Theta_e
319 319 320 320 321 321 320 320 320 319 319 320 320 321 322 321 320 319 317 315 316 314 312 312 311 309 308 307 306 306 306 306 303 291 292 291 290 289 289 288 288 287 287
319 320 319 320 320 320 320 319 319 319 318 319 319 319 317 315 314 315 313 311 312 310 309 307 306 303 304 303 303 302 302 301 298 292 288 288 288 288 287 286 286 285 283
317 319 319 319 320 320 320 318 316 317 315 311 314 314 312 311 310 310 309 306 307 307 305 303 303 301 299 298 298 298 297 294 293 290 286 286 286 286 284 284 284 280 282
315 316 315 315 317 319 318 312 310 309 307 307 308 306 306 305 305 302 302 303 302 300 300 300 300 298 298 296 295 294 291 289 289 287 286 285 283 282 281 279 278 278 279
311 311 311 310 311 307 306 304 303 305 303 302 300 300 299 299 297 297 298 298 297 295 294 295 295 293 293 295 293 290 289 286 285 284 283 280 279 279 279 279 278 276 277
306 307 303 303 302 302 300 299 298 296 296 296 294 295 294 292 296 296 295 295 293 291 290 289 290 287 290 291 291 291 289 286 285 284 278 279 281 280 279 277 276 272 272
301 299 299 298 296 295 294 295 293 293 292 291 291 292 291 292 295 295 293 292 291 291 289 288 287 286 287 287 290 290 289 290 287 283 280 281 281 281 280 276 275 274 273
294 294 293 294 293 292 293 292 290 290 289 289 288 288 289 289 294 293 290 290 289 289 288 287 287 286 286 286 285 285 284 282 282 283 282 282 281 281 280 278 276 273 272
291 292 292 293 292 291 290 290 287 287 286 285 286 287 288 288 292 291 289 287 287 286 285 285 284 284 287 288 282 280 279 280 284 285 285 285 285 285 280 275 269 270 267
292 291 292 292 291 291 289 287 282 287 284 285 284 285 285 286 291 291 288 286 283 281 282 282 283 282 288 288 280 277 273 276 277 274 277 281 282 282 283 277 274 266 265
289 289 288 289 289 289 287 285 286 285 284 283 282 279 279 280 287 289 288 282 282 280 280 279 280 286 288 288 284 277 277 278 276 272 272 272 274 275 275 276 275 272 266
289 288 287 288 287 287 287 286 285 285 283 281 280 280 280 277 285 289 288 285 285 278 278 278 280 287 287 288 285 286 286 281 275 273 267 270 271 273 274 274 274 274 274
288 287 287 286 286 286 286 284 283 283 283 281 281 280 279 279 279 289 288 287 285 278 278 281 284 286 287 285 288 287 276 273 270 275 274 271 272 274 273 271 271 271 271
288 287 286 285 284 284 285 284 283 282 282 281 281 280 279 278 278 279 279 281 284 280 282 277 282 281 282 278 274 276 274 277 273 269 268 270 271 269 269 269 266 266 264
287 286 285 284 284 282 281 282 281 279 284 282 281 280 278 278 279 282 279 276 274 277 270 268 268 268 271 270 269 270 269 269 267 268 267 267 269 268 268 268 266 264 265
285 284 284 282 282 281 280 280 283 283 284 284 283 280 278 282 284 285 285 285 284 282 273 267 267 268 269 268 268 268 267 268 267 267 266 267 268 268 267 266 266 265 266
285 282 282 281 280 280 280 280 280 283 285 285 284 284 284 285 286 286 286 286 286 282 272 271 274 274 272 271 272 272 270 271 268 266 266 266 267 267 267 265 266 267 264
283 282 282 281 281 280 280 280 280 279 278 277 283 284 285 285 285 285 286 283 276 279 278 277 275 274 274 273 274 271 270 272 269 267 267 266 265 267 264 263 265 265 266
281 280 280 279 279 278 277 277 277 277 276 273 273 275 275 284 284 284 284 275 275 274 275 275 275 276 276 275 274 274 274 272 271 267 265 266 267 265 263 264 267 267 266
277 277 277 276 276 275 276 275 275 274 272 272 271 267 265 270 269 269 269 274 274 273 271 272 272 271 271 270 268 267 267 267 266 266 266 265 265 265 265 263 264 265 262
277 276 276 276 275 275 275 274 273 272 270 271 269 269 275 271 269 268 268 266 266 266 267 266 265 263 264 263 262 262 261 262 262 261 261 261 262 263 262 266 265 263 264
276 275 275 273 273 273 272 272 271 271 270 269 268 273 273 268 267 265 263 264 264 262 258 259 257 258 258 258 257 257 257 257 256 257 259 259 260 261 262 263 262 261 260
274 273 272 272 271 271 271 270 270 269 268 267 266 265 265 264 263 263 262 262 262 262 259 258 258 256 254 254 253 254 255 255 256 254 255 255 256 257 259 260 258 258 259
272 272 270 270 270 269 269 268 267 267 266 265 264 263 262 261 261 260 259 258 256 257 254 255 255 256 253 252 252 251 251 252 251 252 252 253 255 255 255 255 258 260 260
269 269 269 268 268 267 266 265 264 264 263 263 262 262 261 260 259 257 254 254 255 254 253 254 255 253 251 251 251 251 251 256 254 254 250 250 254 256 256 256 257 256 257
265 265 265 265 264 264 264 263 262 262 261 260 260 259 257 257 255 255 254 254 253 252 252 252 252 251 250 250 250 253 259 262 258 258 257 256 257 256 253 255 255 254 256
Wind_Speed
19 18 17 16 16 14 13 13 14 11 12 12 11 11 11 10 9 7 6 6 6 5 5 6 6 5 3 3 3 3 4 4 4 1 1 2 3 5 5 3 3 3 2
17 18 19 17 15 15 15 14 13 13 10 12 10 10 8 8 7 7 7 6 6 6 5 5 5 3 4 4 3 4 2 3 4 4 2 2 3 4 5 5 4 3 4
14 17 16 16 17 17 16 14 13 11 10 7 9 10 9 9 8 6 6 6 5 5 5 5 5 5 4 3 2 4 3 2 2 3 3 1 2 2 1 2 3 3 3
13 15 15 16 17 16 13 12 12 9 9 8 7 7 7 7 7 7 7 6 5 4 4 4 5 5 5 5 5 5 4 4 3 2 2 2 1 1 1 2 2 1 2
12 13 14 11 10 10 11 10 8 9 8 8 8 6 6 6 5 6 7 6 6 5 4 3 3 3 6 6 4 4 5 3 3 2 2 2 1 1 3 2 2 1 3
11 11 8 10 10 10 10 11 10 8 8 8 7 7 7 4 10 10 8 7 6 6 6 4 4 4 5 7 5 7 6 5 3 2 2 2 2 2 3 4 4 2 3
9 10 10 11 10 10 11 11 11 10 8 7 7 7 7 6 11 12 11 6 6 6 6 5 4 3 4 5 8 10 8 7 5 5 5 4 4 5 3 2 2 2 3
7 7 9 10 11 11 12 11 9 9 9 9 7 7 8 5 11 12 11 7 6 6 6 5 6 6 5 6 6 6 5 5 4 3 3 2 2 2 3 2 3 2 2
8 8 9 11 13 11 11 11 8 9 6 5 5 8 8 5 12 14 11 6 6 6 6 5 6 6 8 10 6 6 4 3 4 5 4 1 1 4 6 4 2 3 3
10 9 7 10 12 13 12 11 4 8 7 6 6 5 6 6 11 13 9 5 5 4 4 5 7 6 9 9 6 6 4 3 3 2 4 4 5 3 6 3 3 3 1
7 8 7 7 9 10 11 7 8 9 9 7 7 5 4 3 6 12 11 4 4 4 4 3 3 9 10 10 8 5 5 4 4 4 2 2 3 2 1 3 4 3 3
13 10 8 8 7 8 11 8 10 11 10 8 8 5 3 3 5 10 10 8 8 5 4 3 4 9 9 9 7 9 9 7 3 3 2 1 2 3 3 2 3 4 4
13 15 11 10 8 8 10 10 9 8 9 8 6 6 4 2 1 11 12 11 12 4 3 5 8 7 7 4 5 6 6 3 4 3 3 3 3 2 1 0 1 1 2
13 13 13 13 10 8 6 7 7 7 7 7 7 6 5 4 3 3 3 4 9 7 7 4 5 5 3 5 4 3 3 3 3 3 2 1 2 1 1 2 0 1 1
18 13 10 12 11 10 6 5 6 3 6 8 6 7 8 6 5 8 8 4 4 7 5 3 3 3 2 3 3 3 3 2 1 1 1 0 1 1 2 2 2 1 4
10 12 11 10 9 8 9 7 10 9 12 9 12 8 1 8 12 13 11 10 12 13 4 3 1 1 2 2 1 0 1 3 3 2 2 2 2 2 2 1 2 3 4
8 12 9 12 10 9 9 10 11 10 17 17 15 15 11 12 14 14 14 14 14 10 3 2 2 2 2 2 2 2 3 2 3 2 2 2 3 3 3 2 3 3 3
8 10 10 11 10 9 8 9 9 10 10 5 10 9 12 12 12 11 11 9 4 3 2 2 2 2 2 2 2 3 2 2 2 2 2 3 3 3 2 2 2 3 4
11 8 8 9 8 9 8 8 7 8 8 7 4 8 6 12 12 10 8 4 3 2 2 2 2 3 2 3 4 3 2 2 2 2 2 3 3 2 3 2 3 6 5
11 15 13 10 10 8 7 8 7 8 7 6 5 3 0 4 4 4 5 4 5 4 4 4 4 4 4 4 3 3 2 1 1 1 2 3 3 4 4 4 4 4 3
11 10 15 11 9 8 7 7 7 7 7 6 5 3 10 7 5 4 5 5 4 3 4 4 3 3 2 2 2 2 2 2 1 1 1 2 3 3 3 4 3 3 4
12 12 10 10 9 9 8 7 7 8 8 8 6 8 13 6 6 5 4 4 4 4 2 3 3 3 2 2 1 2 1 1 2 2 2 2 2 3 2 2 2 3 3
11 13 12 10 10 12 10 8 8 8 7 7 6 5 5 5 4 4 4 4 3 2 2 3 3 2 2 2 1 2 2 3 3 2 2 2 2 3 2 2 2 3 3
12 12 12 10 8 9 9 8 7 9 8 7 6 5 4 3 3 4 3 3 2 2 3 2 2 3 1 1 1 1 2 3 3 3 3 3 3 3 2 2 3 4 5
10 11 10 9 8 8 8 7 7 7 6 6 5 4 3 4 3 3 2 1 1 1 1 1 0 1 2 4 4 4 4 5 5 4 3 3 5 6 4 2 3 4 4
9 10 8 7 7 7 7 7 6 5 5 5 4 4 3 3 2 1 0 1 2 1 1 2 3 3 4 4 5 6 6 7 5 8 5 2 4 3 2 4 7 3 4
Wind_Direction
192 194 195 196 197 193 195 193 192 183 190 196 197 196 199 198 188 181 185 177 191 187 188 197 205 170 177 191 191 192 202 185 221 116 118 97 135 150 157 187 175 178 201
197 189 193 192 186 189 194 193 187 193 191 196 191 190 174 163 166 170 174 181 186 194 194 178 173 160 184 181 193 217 182 154 152 151 125 140 157 171 172 173 185 192 212
190 192 189 188 186 193 193 186 180 185 185 173 170 170 165 163 160 162 164 163 164 182 176 178 178 173 199 173 196 175 142 137 81 124 143 118 106 161 147 205 191 213 227
187 190 191 186 188 191 185 173 173 171 162 159 160 150 152 149 153 156 149 150 157 150 152 182 193 192 193 184 180 178 146 138 129 108 97 128 133 111 109 171 264 229 269
186 189 193 185 172 156 157 159 151 155 152 139 131 130 139 146 153 158 146 140 146 157 145 146 108 192 193 173 153 170 142 118 98 114 121 87 156 165 205 185 180 186 244
187 192 165 153 152 158 149 146 139 130 129 132 138 141 140 130 149 148 134 143 156 153 144 128 120 120 135 137 126 133 142 145 155 134 145 153 170 198 184 181 157 147 274
180 159 165 153 152 150 141 138 138 142 133 139 134 135 130 128 150 150 145 141 137 147 148 146 137 113 117 117 118 117 106 95 124 149 149 188 188 203 164 162 200 168 223
156 159 153 152 147 143 142 143 135 140 141 142 139 138 137 151 153 146 125 126 128 142 149 155 146 140 143 138 127 118 110 93 78 74 99 129 199 199 162 155 154 146 8
154 172 169 154 144 146 146 142 132 131 120 123 137 140 135 140 153 148 136 127 134 136 134 138 138 135 155 147 123 117 91 56 39 71 81 53 114 136 143 108 45 79 319
166 167 170 155 151 152 143 135 114 121 119 121 111 112 125 145 150 149 136 124 130 129 119 135 133 145 157 146 131 142 147 205 145 31 23 41 55 93 150 89 130 144 191
133 132 141 140 140 137 129 118 122 119 113 112 116 101 106 116 142 145 145 117 141 144 142 128 130 158 166 160 148 142 165 134 70 103 82 44 42 33 80 145 169 153 164
140 138 142 130 127 131 127 122 127 127 129 130 120 113 93 73 133 144 143 149 155 135 158 157 159 174 174 177 169 167 172 135 119 87 83 215 203 211 233 217 203 197 207
156 145 144 128 125 134 138 137 125 141 141 135 152 145 139 117 110 144 152 144 134 118 146 153 158 169 180 173 171 169 118 122 143 170 199 207 201 192 124 4 280 42 286
152 148 145 138 132 127 121 136 147 154 134 146 158 142 143 157 146 143 130 130 134 103 117 93 102 105 127 114 77 64 123 159 179 183 210 209 113 127 234 141 222 171 198
145 143 152 134 135 128 114 146 147 87 149 160 161 150 156 170 195 168 148 133 133 129 105 63 54 63 64 47 38 36 23 48 139 197 144 254 263 224 242 172 179 175 226
150 137 147 128 127 127 121 105 98 120 122 118 132 130 76 137 158 162 156 151 137 134 70 78 82 88 110 114 110 349 186 221 228 205 209 197 225 231 243 249 184 198 243
155 135 141 124 130 137 135 130 124 108 106 112 120 132 133 137 133 146 155 156 155 152 105 152 147 155 195 183 203 201 213 204 166 178 208 234 233 213 227 215 215 234 243
130 133 138 127 132 138 134 132 135 134 126 99 106 125 128 130 133 132 138 114 124 91 116 142 159 168 174 199 213 199 224 233 207 180 195 208 228 223 224 236 239 249 267
132 129 117 110 110 116 121 119 119 122 120 121 114 73 53 117 105 100 127 108 125 155 148 127 137 137 173 202 214 197 185 202 211 190 199 189 228 208 242 219 244 246 257
111 115 115 113 114 114 117 122 123 119 121 124 114 116 95 66 66 61 53 69 72 64 63 63 46 42 47 51 43 45 70 100 227 210 217 193 213 209 222 213 221 240 221
113 111 118 110 112 115 115 118 117 113 119 111 98 119 106 102 96 85 87 69 84 77 80 85 78 74 61 54 48 56 58 19 12 327 274 240 229 230 231 250 241 230 247
122 117 110 107 108 109 110 109 113 116 112 108 84 85 95 86 90 93 84 80 76 80 76 81 68 79 65 71 73 93 86 295 309 353 353 336 288 258 243 220 231 239 240
105 111 108 105 110 112 106 107 107 108 110 101 98 95 80 88 107 107 112 104 99 99 89 106 101 60 36 45 84 100 71 286 275 277 279 271 274 279 257 237 233 233 234
95 96 103 107 108 103 105 110 111 107 108 103 98 95 102 111 104 97 90 77 54 24 30 66 108 103 81 259 259 195 189 254 259 264 256 274 260 263 263 257 247 252 254
88 94 94 99 104 110 110 101 95 93 98 105 111 112 107 99 86 65 37 66 111 100 2 306 152 124 247 273 288 306 287 288 263 240 238 212 243 249 236 227 244 245 250
79 83 86 89 87 89 98 102 103 109 108 104 100 93 98 105 113 116 145 258 252 244 275 273 255 259 272 266 281 280 281 291 284 264 246 228 248 257 244 241 246 235 260